WXM80 ListenWXM80 Stop

You find our weather info also at:

UK Metoffice

WeatherCloud

Weather Underground

Northeastern Weather Network

AWEKAS

Citizen Weather Observer Program (CWOP)

HAMweather, WeatherForYou, PWS Weather


Weather Underground History page Text

Daily Summary for May 31, 2016 Units:  English    Metric   Both
« Previous Day
Next Day »
Daily Weekly Monthly Yearly Custom
  High: Low: Average:
Temperature: 89.4 °F 68.0 °F 76 °F
Dew Point: 72.3 °F 59.6 °F 66.4 °F
Humidity: 97 % 38 % 76 %
Wind Speed: 4.8 mph 0.0 mph 1.1 mph
Wind Gust: 8.0 mph - -
Wind:- - South
Pressure: 29.96 in 29.87 in -
Precipitation: 0.00 in    
Historical Graphs
 
 
Tabular Data for May 31, 2016
Time Temperature Dew Point Pressure Wind Wind Speed Wind Gust Humidity Rainfall Rate (Hourly)
00:02 69.7 °F 67.6 °F 29.92 in WSW 1.1 mph 3.5 mph 93 % 0.00 in
00:07 69.7 °F 67.6 °F 29.92 in SSW 2.3 mph 3.5 mph 93 % 0.00 in
00:12 69.7 °F 67.6 °F 29.92 in SW 1.2 mph 2.3 mph 93 % 0.00 in
00:17 69.6 °F 67.5 °F 29.92 in WSW 1.2 mph 3.0 mph 93 % 0.00 in
00:22 69.6 °F 67.5 °F 29.92 in SSW 3.3 mph 4.6 mph 93 % 0.00 in
00:27 69.5 °F 67.4 °F 29.91 in SW 1.0 mph 4.6 mph 93 % 0.00 in
00:32 69.4 °F 67.3 °F 29.91 in SSW 0.6 mph 2.3 mph 93 % 0.00 in
00:37 69.4 °F 67.3 °F 29.91 in SW 1.3 mph 4.6 mph 93 % 0.00 in
00:43 69.3 °F 67.2 °F 29.91 in South 2.0 mph 6.0 mph 93 % 0.00 in
00:53 69.2 °F 67.1 °F 29.90 in SSW 2.3 mph 4.0 mph 93 % 0.00 in
00:58 69.2 °F 67.1 °F 29.90 in SW 0.7 mph 3.5 mph 93 % 0.00 in
01:03 69.2 °F 67.1 °F 29.90 in SW 0.3 mph 2.0 mph 93 % 0.00 in
01:08 69.2 °F 67.1 °F 29.91 in SSW 2.5 mph 3.5 mph 93 % 0.00 in
01:13 69.1 °F 67.0 °F 29.91 in SSW 2.2 mph 3.5 mph 93 % 0.00 in
01:18 69.1 °F 67.0 °F 29.90 in SW 0.5 mph 2.3 mph 93 % 0.00 in
01:23 69.1 °F 67.0 °F 29.90 in SSW 0.2 mph 2.3 mph 93 % 0.00 in
01:28 69.0 °F 66.9 °F 29.90 in SSW 0.2 mph 2.3 mph 93 % 0.00 in
01:34 69.0 °F 67.2 °F 29.90 in SSW 0.9 mph 2.3 mph 94 % 0.00 in
01:44 68.9 °F 67.1 °F 29.90 in WSW 0.8 mph 2.3 mph 94 % 0.00 in
01:49 68.9 °F 67.1 °F 29.89 in WSW 0.1 mph 1.2 mph 94 % 0.00 in
01:54 68.9 °F 67.1 °F 29.89 in West 2.3 mph 4.6 mph 94 % 0.00 in
01:59 68.9 °F 67.1 °F 29.90 in WSW 0.7 mph 3.5 mph 94 % 0.00 in
02:09 68.9 °F 67.4 °F 29.89 in SSW 3.8 mph 4.6 mph 95 % 0.00 in
02:14 68.9 °F 67.4 °F 29.90 in WSW 1.0 mph 4.6 mph 95 % 0.00 in
02:19 69.0 °F 67.5 °F 29.90 in SSW 3.5 mph 4.6 mph 95 % 0.00 in
02:25 69.0 °F 67.5 °F 29.90 in SW 1.0 mph 4.0 mph 95 % 0.00 in
02:30 69.0 °F 67.5 °F 29.90 in SW 1.0 mph 4.0 mph 95 % 0.00 in
02:35 69.0 °F 67.5 °F 29.90 in SW 2.9 mph 4.6 mph 95 % 0.00 in
02:40 69.0 °F 67.5 °F 29.90 in SW 1.9 mph 3.5 mph 95 % 0.00 in
02:45 69.0 °F 67.5 °F 29.90 in SW 1.5 mph 3.5 mph 95 % 0.00 in
02:50 69.0 °F 67.5 °F 29.90 in SSW 0.8 mph 2.3 mph 95 % 0.00 in
02:55 69.0 °F 67.5 °F 29.90 in SSW 2.1 mph 6.0 mph 95 % 0.00 in
03:00 69.0 °F 67.5 °F 29.90 in WSW 2.5 mph 5.0 mph 95 % 0.00 in
03:05 69.0 °F 67.5 °F 29.90 in SW 0.8 mph 2.3 mph 95 % 0.00 in
03:10 68.9 °F 67.4 °F 29.90 in SW 1.3 mph 3.5 mph 95 % 0.00 in
03:16 68.9 °F 67.4 °F 29.89 in SW 2.6 mph 4.6 mph 95 % 0.00 in
03:21 68.9 °F 67.4 °F 29.89 in SW 4.0 mph 4.0 mph 95 % 0.00 in
03:26 68.8 °F 67.3 °F 29.90 in SW 3.1 mph 4.6 mph 95 % 0.00 in
03:31 68.8 °F 67.3 °F 29.89 in SW 1.7 mph 3.5 mph 95 % 0.00 in
03:36 68.8 °F 67.3 °F 29.89 in SSW 1.9 mph 3.5 mph 95 % 0.00 in
03:41 68.8 °F 67.3 °F 29.89 in SW 1.9 mph 3.5 mph 95 % 0.00 in
03:46 68.7 °F 67.2 °F 29.89 in WSW 0.6 mph 4.0 mph 95 % 0.00 in
03:51 68.7 °F 67.2 °F 29.89 in SW 1.6 mph 3.5 mph 95 % 0.00 in
03:56 68.7 °F 67.2 °F 29.89 in SW 2.7 mph 5.8 mph 95 % 0.00 in
04:01 68.6 °F 67.1 °F 29.90 in SW 1.2 mph 3.0 mph 95 % 0.00 in
04:12 68.5 °F 67.0 °F 29.89 in SW 0.6 mph 3.5 mph 95 % 0.00 in
04:17 68.5 °F 67.0 °F 29.89 in SW 1.3 mph 6.0 mph 95 % 0.00 in
04:22 68.5 °F 67.0 °F 29.89 in West 0.8 mph 5.0 mph 95 % 0.00 in
04:27 68.5 °F 67.0 °F 29.89 in SW 2.8 mph 3.5 mph 95 % 0.00 in
04:32 68.4 °F 66.9 °F 29.89 in SSW 2.5 mph 3.5 mph 95 % 0.00 in
04:37 68.4 °F 67.2 °F 29.89 in SW 0.8 mph 1.2 mph 96 % 0.00 in
04:42 68.3 °F 66.8 °F 29.89 in SW 1.4 mph 5.8 mph 95 % 0.00 in
04:47 68.3 °F 67.1 °F 29.89 in Calm     96 % 0.00 in
04:52 68.3 °F 67.1 °F 29.89 in SW 0.1 mph 2.3 mph 96 % 0.00 in
04:58 68.2 °F 67.0 °F 29.89 in WSW 2.2 mph 4.0 mph 96 % 0.00 in
05:03 68.2 °F 66.7 °F 29.89 in SW 1.3 mph 2.3 mph 95 % 0.00 in
05:08 68.2 °F 67.0 °F 29.89 in SW 0.7 mph 1.2 mph 96 % 0.00 in
05:13 68.2 °F 67.0 °F 29.89 in SW 1.9 mph 4.6 mph 96 % 0.00 in
05:18 68.1 °F 66.9 °F 29.89 in WSW 0.6 mph 2.3 mph 96 % 0.00 in
05:23 68.1 °F 66.9 °F 29.90 in Calm   1.2 mph 96 % 0.00 in
05:33 68.0 °F 66.8 °F 29.90 in Calm   3.5 mph 96 % 0.00 in
05:38 68.0 °F 66.8 °F 29.90 in WSW 0.1 mph 3.5 mph 96 % 0.00 in
05:43 68.0 °F 66.8 °F 29.90 in Calm     96 % 0.00 in
05:49 68.0 °F 66.8 °F 29.91 in Calm   3.5 mph 96 % 0.00 in
05:59 68.0 °F 66.8 °F 29.91 in Calm     96 % 0.00 in
06:04 68.1 °F 66.9 °F 29.91 in West 0.1 mph 1.2 mph 96 % 0.00 in
06:09 68.1 °F 66.9 °F 29.91 in Calm   2.3 mph 96 % 0.00 in
06:14 68.2 °F 67.0 °F 29.91 in Calm     96 % 0.00 in
06:19 68.3 °F 67.1 °F 29.91 in SW 0.2 mph 1.2 mph 96 % 0.00 in
06:24 68.4 °F 67.5 °F 29.91 in SW 1.8 mph 3.5 mph 97 % 0.00 in
06:29 68.5 °F 67.6 °F 29.92 in SW 1.3 mph 2.3 mph 97 % 0.00 in
06:34 68.5 °F 67.6 °F 29.91 in SW 0.3 mph 1.0 mph 97 % 0.00 in
06:40 68.6 °F 67.7 °F 29.92 in SW 0.7 mph 1.2 mph 97 % 0.00 in
06:45 68.7 °F 67.8 °F 29.92 in Calm     97 % 0.00 in
06:50 68.8 °F 67.9 °F 29.93 in Calm     97 % 0.00 in
06:55 68.8 °F 67.9 °F 29.92 in Calm     97 % 0.00 in
07:00 68.9 °F 68.0 °F 29.92 in Calm     97 % 0.00 in
07:05 69.0 °F 68.1 °F 29.93 in Calm     97 % 0.00 in
07:10 69.0 °F 68.1 °F 29.92 in Calm     97 % 0.00 in
07:15 69.1 °F 68.2 °F 29.93 in Calm     97 % 0.00 in
07:20 69.1 °F 67.9 °F 29.92 in Calm     96 % 0.00 in
07:25 69.1 °F 67.9 °F 29.93 in Calm     96 % 0.00 in
07:36 69.3 °F 68.1 °F 29.93 in East 1.8 mph 3.5 mph 96 % 0.00 in
07:41 69.2 °F 67.7 °F 29.93 in Calm     95 % 0.00 in
07:46 69.3 °F 67.8 °F 29.93 in Calm   1.2 mph 95 % 0.00 in
07:51 69.4 °F 67.9 °F 29.94 in East 0.2 mph 2.3 mph 95 % 0.00 in
07:56 69.4 °F 67.6 °F 29.93 in Calm   1.2 mph 94 % 0.00 in
08:01 69.4 °F 67.6 °F 29.93 in East 0.6 mph 2.0 mph 94 % 0.00 in
08:06 69.5 °F 67.7 °F 29.93 in East 0.4 mph   94 % 0.00 in
08:11 69.7 °F 68.2 °F 29.93 in Calm     95 % 0.00 in
08:16 69.8 °F 68.0 °F 29.93 in Calm     94 % 0.00 in
08:22 69.9 °F 68.1 °F 29.94 in East 0.1 mph 1.2 mph 94 % 0.00 in
08:27 70.1 °F 68.3 °F 29.94 in Calm   1.2 mph 94 % 0.00 in
08:32 70.4 °F 68.6 °F 29.93 in Calm     94 % 0.00 in
08:42 71.1 °F 69.6 °F 29.94 in Calm   1.2 mph 95 % 0.00 in
08:47 71.5 °F 70.0 °F 29.94 in Calm     95 % 0.00 in
08:52 72.0 °F 70.2 °F 29.94 in East 0.4 mph 3.5 mph 94 % 0.00 in
08:57 72.4 °F 70.6 °F 29.94 in Calm     94 % 0.00 in
09:02 72.8 °F 70.7 °F 29.94 in East 1.2 mph 2.3 mph 93 % 0.00 in
09:07 73.3 °F 70.8 °F 29.94 in East 0.9 mph 3.5 mph 92 % 0.00 in
09:13 73.8 °F 71.3 °F 29.94 in East 0.5 mph 2.3 mph 92 % 0.00 in
09:18 74.2 °F 71.1 °F 29.95 in ENE 1.1 mph 2.3 mph 90 % 0.00 in
09:23 74.7 °F 71.2 °F 29.95 in ENE 0.4 mph 2.3 mph 89 % 0.00 in
09:28 75.0 °F 71.5 °F 29.94 in Calm   1.0 mph 89 % 0.00 in
09:33 75.3 °F 71.2 °F 29.94 in North 0.9 mph 2.3 mph 87 % 0.00 in
09:38 75.5 °F 71.0 °F 29.94 in North 1.2 mph 3.0 mph 86 % 0.00 in
09:43 75.8 °F 71.0 °F 29.95 in NE 0.7 mph 2.3 mph 85 % 0.00 in
09:48 76.2 °F 71.4 °F 29.94 in ENE 1.2 mph 3.5 mph 85 % 0.00 in
09:53 76.7 °F 71.5 °F 29.94 in ENE 0.5 mph 2.3 mph 84 % 0.00 in
09:58 76.9 °F 71.0 °F 29.94 in NE 1.3 mph 3.5 mph 82 % 0.00 in
10:04 77.1 °F 71.5 °F 29.94 in NE 1.8 mph 2.3 mph 83 % 0.00 in
10:09 77.3 °F 71.7 °F 29.94 in NNE 1.8 mph 4.0 mph 83 % 0.00 in
10:14 77.3 °F 71.4 °F 29.95 in NE 1.4 mph 3.5 mph 82 % 0.00 in
10:19 77.4 °F 71.5 °F 29.95 in NE 1.3 mph 2.3 mph 82 % 0.00 in
10:24 77.5 °F 71.6 °F 29.95 in NE 2.6 mph 3.5 mph 82 % 0.00 in
10:29 77.5 °F 71.6 °F 29.94 in NE 0.4 mph 1.2 mph 82 % 0.00 in
10:34 77.7 °F 71.8 °F 29.94 in NNE 2.6 mph 3.5 mph 82 % 0.00 in
10:39 77.9 °F 70.9 °F 29.95 in ENE 2.1 mph 3.5 mph 79 % 0.00 in
10:44 78.4 °F 71.3 °F 29.94 in NE 0.9 mph 3.5 mph 79 % 0.00 in
10:49 78.7 °F 71.3 °F 29.94 in Calm   2.3 mph 78 % 0.00 in
10:55 79.4 °F 72.3 °F 29.95 in North 1.3 mph 3.5 mph 79 % 0.00 in
11:00 79.9 °F 70.5 °F 29.95 in ENE 2.3 mph 2.3 mph 73 % 0.00 in
11:05 80.2 °F 69.9 °F 29.95 in ENE 1.0 mph 3.0 mph 71 % 0.00 in
11:10 80.9 °F 69.3 °F 29.95 in ENE 0.7 mph 3.5 mph 68 % 0.00 in
11:15 81.8 °F 70.6 °F 29.95 in ENE 0.8 mph 4.0 mph 69 % 0.00 in
11:20 82.3 °F 66.0 °F 29.94 in ENE 0.1 mph 1.2 mph 58 % 0.00 in
11:25 82.9 °F 66.6 °F 29.95 in ENE 0.4 mph 3.5 mph 58 % 0.00 in
11:30 83.6 °F 68.7 °F 29.94 in ENE 1.3 mph 4.0 mph 61 % 0.00 in
11:35 84.1 °F 69.7 °F 29.95 in Calm   2.3 mph 62 % 0.00 in
11:40 84.3 °F 70.3 °F 29.94 in ENE 0.2 mph 1.2 mph 63 % 0.00 in
11:46 84.7 °F 67.8 °F 29.94 in ENE 1.9 mph 3.5 mph 57 % 0.00 in
11:51 84.7 °F 65.1 °F 29.94 in ENE 0.7 mph 3.5 mph 52 % 0.00 in
11:56 84.7 °F 67.3 °F 29.94 in ENE 0.1 mph 1.2 mph 56 % 0.00 in
12:01 84.9 °F 66.9 °F 29.94 in NNE 1.6 mph 3.5 mph 55 % 0.00 in
12:06 85.4 °F 67.9 °F 29.94 in ENE 1.0 mph 2.3 mph 56 % 0.00 in
12:11 85.4 °F 66.9 °F 29.93 in ENE 0.8 mph 2.3 mph 54 % 0.00 in
12:16 85.3 °F 65.7 °F 29.93 in ENE 0.2 mph 1.2 mph 52 % 0.00 in
12:21 85.5 °F 67.0 °F 29.93 in NE 0.6 mph 2.3 mph 54 % 0.00 in
12:26 85.5 °F 65.9 °F 29.93 in NE 0.2 mph   52 % 0.00 in
12:31 85.7 °F 64.9 °F 29.93 in South 0.5 mph 2.0 mph 50 % 0.00 in
12:37 86.0 °F 64.6 °F 29.93 in NE 0.6 mph 3.5 mph 49 % 0.00 in
12:42 86.4 °F 65.6 °F 29.93 in ENE 1.5 mph 3.5 mph 50 % 0.00 in
12:47 86.6 °F 62.1 °F 29.92 in NE 0.2 mph 1.2 mph 44 % 0.00 in
12:52 87.0 °F 63.7 °F 29.92 in NNE 1.1 mph 2.3 mph 46 % 0.00 in
12:57 86.9 °F 62.4 °F 29.93 in NNW 0.4 mph 2.3 mph 44 % 0.00 in
13:02 86.9 °F 66.6 °F 29.92 in ENE 0.2 mph 1.2 mph 51 % 0.00 in
13:07 87.2 °F 64.5 °F 29.92 in NNW 0.7 mph 2.3 mph 47 % 0.00 in
13:12 87.0 °F 63.7 °F 29.92 in ENE 0.8 mph 3.0 mph 46 % 0.00 in
13:17 87.1 °F 62.5 °F 29.92 in ENE 1.3 mph 3.5 mph 44 % 0.00 in
13:23 87.2 °F 59.9 °F 29.91 in ENE 2.3 mph 3.5 mph 40 % 0.00 in
13:28 86.8 °F 62.3 °F 29.91 in NE 1.7 mph 3.5 mph 44 % 0.00 in
13:38 86.7 °F 64.1 °F 29.91 in NE 3.2 mph 5.0 mph 47 % 0.00 in
13:43 86.8 °F 62.9 °F 29.91 in NNE 1.7 mph 4.0 mph 45 % 0.00 in
13:48 87.0 °F 63.1 °F 29.90 in NNW 2.2 mph 3.5 mph 45 % 0.00 in
13:53 87.2 °F 60.6 °F 29.90 in NW 1.6 mph 3.5 mph 41 % 0.00 in
13:58 87.5 °F 63.5 °F 29.90 in North 1.5 mph 2.3 mph 45 % 0.00 in
14:03 87.7 °F 63.1 °F 29.90 in North 1.2 mph 2.3 mph 44 % 0.00 in
14:08 87.9 °F 61.9 °F 29.90 in NNW 0.8 mph 4.6 mph 42 % 0.00 in
14:14 88.2 °F 63.5 °F 29.91 in ENE 0.5 mph 3.5 mph 44 % 0.00 in
14:19 88.4 °F 63.7 °F 29.91 in ENE 1.7 mph 2.3 mph 44 % 0.00 in
14:24 88.4 °F 59.6 °F 29.91 in ENE 1.5 mph 3.5 mph 38 % 0.00 in
14:29 88.1 °F 62.8 °F 29.90 in ENE 2.4 mph 3.5 mph 43 % 0.00 in
14:39 88.0 °F 62.0 °F 29.90 in NNE 1.3 mph 3.0 mph 42 % 0.00 in
14:49 88.1 °F 64.7 °F 29.90 in NNE 0.8 mph 2.3 mph 46 % 0.00 in
14:59 88.0 °F 63.4 °F 29.89 in SW 3.7 mph 8.0 mph 44 % 0.00 in
15:05 87.9 °F 63.3 °F 29.90 in SW 2.6 mph 6.0 mph 44 % 0.00 in
15:10 87.9 °F 62.6 °F 29.90 in WNW 4.8 mph 5.8 mph 43 % 0.00 in
15:15 87.8 °F 64.4 °F 29.90 in WSW 2.0 mph 4.6 mph 46 % 0.00 in
15:20 88.0 °F 62.7 °F 29.89 in WSW 1.9 mph 6.9 mph 43 % 0.00 in
15:25 88.2 °F 62.2 °F 29.89 in WSW 2.6 mph 8.0 mph 42 % 0.00 in
15:30 88.4 °F 65.0 °F 29.89 in WNW 0.4 mph 2.3 mph 46 % 0.00 in
15:35 88.6 °F 62.6 °F 29.90 in WSW 2.9 mph 4.6 mph 42 % 0.00 in
15:40 88.8 °F 60.7 °F 29.90 in SW 1.2 mph 3.5 mph 39 % 0.00 in
15:45 89.0 °F 61.5 °F 29.89 in SSW 4.1 mph 4.6 mph 40 % 0.00 in
15:50 89.0 °F 61.5 °F 29.89 in SW 3.0 mph 4.0 mph 40 % 0.00 in
15:56 88.9 °F 61.5 °F 29.89 in WSW 2.8 mph 3.5 mph 40 % 0.00 in
16:01 88.8 °F 62.1 °F 29.89 in WNW 2.4 mph 4.0 mph 41 % 0.00 in
16:06 88.7 °F 62.7 °F 29.89 in SW 1.7 mph 4.6 mph 42 % 0.00 in
16:11 88.8 °F 62.7 °F 29.89 in WSW 3.8 mph 5.8 mph 42 % 0.00 in
16:16 89.0 °F 62.9 °F 29.88 in WSW 2.2 mph 3.5 mph 42 % 0.00 in
16:21 89.1 °F 62.3 °F 29.88 in SE 3.3 mph 6.9 mph 41 % 0.00 in
16:26 89.2 °F 65.1 °F 29.88 in SW 1.0 mph 5.0 mph 45 % 0.00 in
16:31 89.4 °F 63.3 °F 29.88 in SSW 2.3 mph 4.0 mph 42 % 0.00 in
16:36 89.4 °F 68.3 °F 29.88 in South 0.5 mph 2.3 mph 50 % 0.00 in
16:41 89.2 °F 68.7 °F 29.88 in South 1.2 mph 3.5 mph 51 % 0.00 in
16:47 88.4 °F 68.5 °F 29.88 in SE 0.7 mph 4.6 mph 52 % 0.00 in
16:52 87.3 °F 68.1 °F 29.88 in SSE 1.6 mph 3.5 mph 53 % 0.00 in
16:57 86.3 °F 68.2 °F 29.88 in SE 0.9 mph 2.0 mph 55 % 0.00 in
17:07 85.1 °F 67.1 °F 29.88 in SE 2.8 mph 7.0 mph 55 % 0.00 in
17:12 84.3 °F 67.9 °F 29.88 in South 0.6 mph 2.3 mph 58 % 0.00 in
17:17 84.1 °F 67.7 °F 29.88 in SE 0.1 mph 5.8 mph 58 % 0.00 in
17:22 83.8 °F 67.9 °F 29.88 in SSW 0.7 mph 2.0 mph 59 % 0.00 in
17:27 83.6 °F 67.8 °F 29.88 in SW 1.8 mph 7.0 mph 59 % 0.00 in
17:32 83.5 °F 67.7 °F 29.88 in South 2.3 mph 4.6 mph 59 % 0.00 in
17:38 83.1 °F 66.8 °F 29.88 in ESE 1.0 mph 3.5 mph 58 % 0.00 in
17:43 82.6 °F 66.3 °F 29.88 in South 1.1 mph 3.5 mph 58 % 0.00 in
17:48 82.2 °F 66.9 °F 29.88 in SSW 1.4 mph 4.0 mph 60 % 0.00 in
17:53 81.9 °F 66.2 °F 29.87 in SSW 3.2 mph 7.0 mph 59 % 0.00 in
17:58 81.6 °F 66.4 °F 29.88 in SSW 2.2 mph 4.6 mph 60 % 0.00 in
18:03 81.2 °F 65.0 °F 29.88 in South 0.7 mph 3.5 mph 58 % 0.00 in
18:08 81.0 °F 65.3 °F 29.88 in South 1.2 mph 3.5 mph 59 % 0.00 in
18:13 80.7 °F 65.0 °F 29.88 in SSW 1.7 mph 4.6 mph 59 % 0.00 in
18:18 80.6 °F 65.4 °F 29.88 in SE 0.5 mph 3.0 mph 60 % 0.00 in
18:23 80.4 °F 65.7 °F 29.88 in SE 2.7 mph 4.6 mph 61 % 0.00 in
18:29 80.0 °F 64.4 °F 29.89 in South 1.8 mph 5.8 mph 59 % 0.00 in
18:34 79.8 °F 64.2 °F 29.89 in SSW 1.0 mph 3.5 mph 59 % 0.00 in
18:39 79.6 °F 64.5 °F 29.89 in SSW 2.1 mph 3.5 mph 60 % 0.00 in
18:44 79.4 °F 63.8 °F 29.89 in SW 2.5 mph 4.0 mph 59 % 0.00 in
18:49 79.3 °F 63.2 °F 29.89 in SSW 3.1 mph 4.6 mph 58 % 0.00 in
18:54 79.0 °F 62.5 °F 29.89 in SSW 2.3 mph 6.9 mph 57 % 0.00 in
18:59 78.8 °F 62.8 °F 29.89 in SSW 0.9 mph 2.3 mph 58 % 0.00 in
19:04 78.5 °F 63.5 °F 29.89 in SE 0.6 mph 2.0 mph 60 % 0.00 in
19:09 78.4 °F 63.8 °F 29.90 in South 1.8 mph 3.5 mph 61 % 0.00 in
19:14 78.2 °F 64.1 °F 29.90 in SE 0.9 mph 2.3 mph 62 % 0.00 in
19:20 77.9 °F 64.3 °F 29.90 in SSE 0.7 mph 3.5 mph 63 % 0.00 in
19:25 77.6 °F 64.0 °F 29.90 in SSE 1.8 mph 4.6 mph 63 % 0.00 in
19:30 77.3 °F 64.2 °F 29.90 in SSE 0.5 mph 2.3 mph 64 % 0.00 in
19:35 77.2 °F 64.1 °F 29.90 in SW 1.2 mph 4.0 mph 64 % 0.00 in
19:40 77.0 °F 63.9 °F 29.89 in SSW 0.3 mph 1.2 mph 64 % 0.00 in
19:45 76.8 °F 63.7 °F 29.89 in SSW 0.5 mph 1.2 mph 64 % 0.00 in
19:50 76.6 °F 63.5 °F 29.90 in SW 0.8 mph 2.3 mph 64 % 0.00 in
19:55 76.4 °F 63.8 °F 29.90 in ESE 0.6 mph 1.2 mph 65 % 0.00 in
20:00 76.1 °F 63.9 °F 29.90 in SSW 1.2 mph 3.5 mph 66 % 0.00 in
20:05 75.9 °F 63.3 °F 29.90 in SW 0.6 mph 2.0 mph 65 % 0.00 in
20:11 75.6 °F 63.4 °F 29.90 in WSW 0.1 mph 3.5 mph 66 % 0.00 in
20:16 75.3 °F 63.2 °F 29.90 in SSW 0.1 mph 1.2 mph 66 % 0.00 in
20:21 75.1 °F 63.4 °F 29.90 in WSW 0.1 mph 2.3 mph 67 % 0.00 in
20:26 74.9 °F 63.2 °F 29.90 in Calm     67 % 0.00 in
20:31 74.6 °F 63.3 °F 29.90 in WSW 0.2 mph 1.2 mph 68 % 0.00 in
20:36 74.4 °F 63.6 °F 29.90 in West 0.8 mph 3.5 mph 69 % 0.00 in
20:41 74.1 °F 63.7 °F 29.90 in SW 0.7 mph 2.0 mph 70 % 0.00 in
20:46 73.9 °F 64.3 °F 29.90 in SW 0.1 mph 2.3 mph 72 % 0.00 in
20:51 73.7 °F 64.5 °F 29.91 in SSW 0.4 mph 3.5 mph 73 % 0.00 in
20:56 73.4 °F 64.6 °F 29.91 in SW 1.0 mph 3.5 mph 74 % 0.00 in
21:02 73.2 °F 64.8 °F 29.91 in SSW 1.3 mph 5.0 mph 75 % 0.00 in
21:07 73.0 °F 65.0 °F 29.91 in WSW 0.1 mph 1.2 mph 76 % 0.00 in
21:12 72.7 °F 65.1 °F 29.91 in SW 0.9 mph 2.3 mph 77 % 0.00 in
21:17 72.6 °F 65.0 °F 29.91 in SW 0.2 mph 1.2 mph 77 % 0.00 in
21:22 72.4 °F 65.5 °F 29.91 in WSW 0.5 mph 3.0 mph 79 % 0.00 in
21:27 72.3 °F 65.8 °F 29.92 in SW 1.2 mph 3.5 mph 80 % 0.00 in
21:32 72.1 °F 65.9 °F 29.92 in West 1.7 mph 4.0 mph 81 % 0.00 in
21:37 72.0 °F 65.8 °F 29.92 in West 2.0 mph 3.5 mph 81 % 0.00 in
21:42 71.9 °F 65.8 °F 29.92 in WSW 2.0 mph 2.0 mph 81 % 0.00 in
21:47 71.7 °F 65.9 °F 29.92 in SW 0.3 mph 3.5 mph 82 % 0.00 in
21:53 71.6 °F 66.2 °F 29.93 in Calm   1.2 mph 83 % 0.00 in
21:58 71.5 °F 66.1 °F 29.93 in Calm   1.2 mph 83 % 0.00 in
22:03 71.3 °F 65.9 °F 29.93 in Calm     83 % 0.00 in
22:08 71.2 °F 66.1 °F 29.93 in Calm   1.2 mph 84 % 0.00 in
22:13 71.0 °F 65.9 °F 29.93 in Calm     84 % 0.00 in
22:18 70.8 °F 66.1 °F 29.93 in SSW 0.3 mph 3.5 mph 85 % 0.00 in
22:23 70.7 °F 66.0 °F 29.94 in Calm   1.2 mph 85 % 0.00 in
22:28 70.6 °F 66.2 °F 29.94 in SSW 0.9 mph 4.6 mph 86 % 0.00 in
22:33 70.5 °F 66.1 °F 29.94 in WSW 1.8 mph 4.6 mph 86 % 0.00 in
22:38 70.4 °F 66.0 °F 29.93 in SW 3.1 mph 6.9 mph 86 % 0.00 in
22:44 70.3 °F 65.9 °F 29.94 in Calm   3.5 mph 86 % 0.00 in
22:49 70.3 °F 65.9 °F 29.94 in West 0.2 mph 2.3 mph 86 % 0.00 in
22:54 70.2 °F 65.8 °F 29.94 in SW 1.6 mph 3.5 mph 86 % 0.00 in
22:59 70.1 °F 65.7 °F 29.94 in Calm   1.2 mph 86 % 0.00 in
23:04 70.1 °F 65.7 °F 29.94 in Calm   2.3 mph 86 % 0.00 in
23:09 70.0 °F 65.6 °F 29.94 in Calm     86 % 0.00 in
23:14 69.9 °F 65.5 °F 29.94 in Calm     86 % 0.00 in
23:19 69.8 °F 65.4 °F 29.94 in Calm     86 % 0.00 in
23:24 69.7 °F 65.3 °F 29.95 in Calm   1.0 mph 86 % 0.00 in
23:30 69.6 °F 65.2 °F 29.95 in Calm     86 % 0.00 in
23:35 69.5 °F 65.1 °F 29.95 in Calm     86 % 0.00 in
23:40 69.4 °F 65.4 °F 29.95 in Calm   1.2 mph 87 % 0.00 in
23:45 69.3 °F 65.3 °F 29.95 in SW 0.2 mph 1.2 mph 87 % 0.00 in
23:50 69.2 °F 65.2 °F 29.95 in SW 0.7 mph 3.0 mph 87 % 0.00 in
23:55 69.0 °F 65.0 °F 29.96 in North 0.1 mph 1.0 mph 87 % 0.00 in
Crab Meadow Weather
Compliments of Weather Underground - 2.75 mb

Script developed by  Jim McMurry - jmcmurry@mwt.net Adapted for the template by  Wim van der Kuil - Leuven-Template.eu

Astronomy: One year on Pluto is equal to 248 Earth years.